EHI
0 0 0 0 0 0 0 0 0 0 0 0 0 0 0 0 0 0 0 0 0 0 0 0 0 0 0 0 0 0 0 0 0 0 0 0 0 0 0 0 0 0 0 0
0 0 0 0 0 0 0 0 0 0 0 0 0 0 0 0 0 0 0 0 0 0 0 0 0 0 0 0 0 0 0 0 0 0 0 0 0 0 0 0 0 0 0 0
0 0 0 0 0 0 0 0 0 0 0 0 0 0 0 0 0 0 0 0 0 0 0 0 0 0 0 0 0 0 0 0 0 0 0 0 0 0 0 0 0 0 0 0
0 0 0 0 0 0 0 0 0 0 0 0 0 0 0 0 0 0 0 0 0 0 0 0 0 0 0 0 0 0 0 0 0 0 0 0 0 0 0 0 0 0 0 0
0 0 0 0 0 0 0 0 0 0 0 0 0 0 0 0 0 0 0 0 0 0 0 0 0 0 0 0 0 0 0 0 0 0 0 0 0 0 0 0 0 0 0 0
0 0 0 0 0 0 0 0 0 0 0 0 0 0 0 0 0 0 0 0 0 0 0 0 0 0 0 0 0 0 0 0 0 0 0 0 0 0 0 0 0 0 0 0
0 0 0 0 0 0 0 0 0 0 0 0 0 0 0 0 0 0 0 0 0 0 0 0 0 0 0 0 0 0 0 0 0 0 0 0 0 0 0 0 0 0 0 0
0 0 0 0 0 0 0 0 0 0 0 0 0 0 0 0 0 0 0 0 0 0 0 0 0 0 0 0 0 0 0 0 0 0 0 0 0 0 0 0 0 0 0 0
0 0 0 0 0 0 0 0 0 0 0 0 0 0 0 0 0 0 0 0 0 0 0 0 0 0 0 0 0 0 0 0 0 0 0 0 0 0 0 0 0 0 0 0
0 0 0 0 0 0 0 0 0 0 0 0 0 0 0 0 0 0 0 0 0 0 0 0 0 0 0 0 0 0 0 0 0 0 0 0 0 0 0 0 0 0 0 0
0 0 0 0 0 0 0 0 0 0 0 0 0 0 0 0 0 0 0 0 0 0 0 0 0 0 0 0 0 0 0 0 0 0 0 0 0 0 0 0 0 0 0 0
0 0 0 0 0 0 0 0 0 0 0 0 0 0 0 0 0 0 0 0 0 0 0 0 0 0 0 0 0 0 0 0 0 0 0 0 0 0 0 0 0 0 0 0
0 0 0 0 0 0 0 0 0 0 0 0 0 0 0 0 0 0 0 0 0 0 0 0 0 0 0 0 0 0 0 0 0 0 0 0 0 0 0 0 0 0 0 0
0 0 0 0 0 0 0 0 0 0 0 0 0 0 0 0 0 0 0 0 0 0 0 0 0 0 0 0 0 0 0 0 0 0 0 0 0 0 0 0 0 0 0 0
0 0 0 0 0 0 0 0 0 0 0 0 0 0 0 0 0 0 0 0 0 0 0 0 0 0 0 0 0 0 0 0 0 0 0 0 0 0 0 0 0 0 0 0
0 0 0 0 0 0 0 0 0 0 0 0 0 0 0 0 0 0 0 0 0 0 0 0 0 0 0 0 0 0 0 0 0 0 0 0 0 0 0 0 0 0 0 0
0 0 0 0 0 0 0 0 0 0 0 0 0 0 0 0 0 0 0 0 0 0 0 0 0 0 0 0 0 0 0 0 0 0 0 0 0 0 0 0 0 0 0 0
0 0 0 0 0 0 0 0 0 0 0 0 0 0 0 0 0 0 0 0 0 0 0 0 0 0 0 0 0 0 0 0 0 0 0 0 0 0 0 0 0 0 0 0
0 0 0 0 0 0 0 0 0 0 0 0 0 0 0 0 0 0 0 0 0 0 0 0 0 0 0 0 0 0 0 0 0 0 0 0 0 0 0 0 0 0 0 0
0 0 0 0 0 0 0 0 0 0 0 0 0 0 0 0 0 0 0 0 0 0 0 0 0 0 0 0 0 0 0 0 0 0 0 0 0 0 0 0 0 0 0 0
0 0 0 0 0 0 0 0 0 0 0 0 0 0 0 0 0 0 0 0 0 0 0 0 0 0 0 0 0 0 0 0 0 0 0 0 0 0 0 0 0 0 0 0
0 0 0 0 0 0 0 0 0 0 0 0 0 0 0 0 0 0 0 0 0 0 0 0 0 0 0 0 0 0 0 0 0 0 0 0 0 0 0 0 0 0 0 0
0 0 0 0 0 0 0 0 0 0 0 0 0 0 0 0 0 0 0 0 0 0 0 0 0 0 0 0 0 0 0 0 0 0 0 0 0 0 0 0 0 0 0 0
0 0 0 0 0 0 0 0 0 0 0 0 0 0 0 0 0 0 0 0 0 0 0 0 0 0 0 0 0 0 0 0 0 0 0 0 0 0 0 0 0 0 0 0
0 0 0 0 0 0 0 0 0 0 0 0 0 0 0 0 0 0 0 0 0 0 0 0 0 0 0 0 0 0 0 0 0 0 0 0 0 0 0 0 0 0 0 0
0 0 0 0 0 0 0 0 0 0 0 0 0 0 0 0 0 0 0 0 0 0 0 0 0 0 0 0 0 0 0 0 0 0 0 0 0 0 0 0 0 0 0 0
0 0 0 0 0 0 0 0 0 0 0 0 0 0 0 0 0 0 0 0 0 0 0 0 0 0 0 0 0 0 0 0 0 0 0 0 0 0 0 0 0 0 0 0
Wind_Speed
7 5 4 6 8 8 9 9 10 11 10 14 6 9 9 8 8 7 6 6 4 3 2 3 4 5 5 6 6 6 7 7 8 8 8 9 10 10 10 11 13 13 14 15
5 2 3 7 10 9 9 7 10 10 17 8 2 3 7 9 10 9 7 7 5 4 3 4 4 5 5 5 6 6 6 7 8 8 9 9 9 9 10 11 11 12 13 15
6 5 6 9 8 9 8 10 10 11 11 2 3 7 10 12 11 10 8 7 6 5 4 4 4 4 4 5 6 6 6 7 8 8 9 9 10 10 10 10 11 11 12 13
4 8 6 7 1 6 7 9 10 10 8 6 5 3 4 7 11 9 8 7 6 5 4 3 2 3 4 5 5 6 6 7 7 8 8 9 8 9 9 8 9 8 10 12
2 4 12 11 3 5 5 11 9 11 10 3 4 3 3 6 8 9 8 7 6 5 4 3 3 3 4 4 5 5 6 7 7 7 8 8 8 8 7 7 8 8 9 10
3 2 9 8 2 3 2 9 7 8 7 8 8 3 7 9 9 8 7 6 6 4 3 3 2 2 3 4 5 5 6 7 7 7 7 8 8 7 6 7 7 9 10 10
5 6 14 7 4 5 2 9 3 8 9 13 13 7 3 11 9 8 7 6 6 5 4 3 2 2 3 4 5 6 6 7 7 7 7 7 6 6 7 8 9 9 9 9
6 5 14 6 9 11 13 2 4 6 8 12 8 4 7 10 10 10 8 7 6 5 4 3 3 2 4 5 5 6 6 6 7 7 7 7 7 7 7 7 8 8 7 8
14 14 7 11 13 9 4 6 6 7 8 11 9 8 10 9 9 9 9 7 6 5 4 4 3 3 4 5 5 5 6 7 7 8 7 6 6 7 7 6 6 8 6 7
8 16 11 12 12 9 8 8 7 8 9 14 10 11 11 11 10 9 8 7 6 6 5 4 4 4 5 5 5 5 6 7 7 6 7 7 6 6 6 7 7 7 6 7
10 13 10 10 13 14 10 7 6 7 9 13 13 12 13 12 12 10 9 7 6 6 6 6 4 4 4 4 4 5 6 6 6 7 6 7 7 5 8 6 9 10 6 6
13 12 9 9 5 7 11 12 12 11 9 8 11 14 13 12 10 10 9 8 6 7 7 6 5 5 4 4 3 4 5 6 5 6 6 6 7 8 11 12 16 16 15 14
11 6 7 6 2 6 9 11 12 14 13 12 9 12 13 9 9 9 8 9 9 9 7 6 5 5 5 4 4 4 5 6 5 6 6 7 7 8 10 11 15 15 17 19
9 3 7 8 8 8 7 8 9 8 8 10 11 10 11 9 9 11 12 11 9 7 6 6 5 6 5 4 4 4 5 6 6 4 5 5 5 6 7 9 10 9 12 18
13 14 12 4 3 5 6 8 9 9 9 8 8 11 13 13 13 13 10 9 8 7 7 6 6 6 5 4 4 4 4 4 4 4 4 4 5 5 6 7 8 8 8 11
6 8 8 8 9 9 9 11 13 15 13 13 12 13 13 12 10 9 10 10 10 10 9 8 8 6 5 4 4 3 3 7 6 3 3 4 4 5 6 6 7 7 8 9
8 10 11 12 14 15 16 16 16 16 15 16 16 13 11 10 9 10 11 11 9 8 7 8 7 5 5 4 4 3 2 4 6 4 3 4 4 4 5 5 6 7 7 11
18 17 14 13 12 16 17 15 13 14 15 15 13 14 15 16 15 14 12 9 7 6 7 7 6 6 5 5 4 3 2 2 2 3 3 4 4 3 4 5 6 7 7 9
19 17 14 14 12 14 16 17 17 15 13 14 17 17 17 15 12 11 11 11 11 11 9 9 13 9 7 7 6 3 3 2 2 3 3 5 5 4 4 5 6 6 7 8
15 15 14 12 12 12 14 13 14 14 14 16 16 15 14 13 12 12 12 12 12 8 6 9 9 7 7 7 7 4 4 3 3 3 3 3 3 4 4 5 6 6 6 7
16 15 15 15 14 13 13 15 16 17 16 17 18 18 17 14 13 13 12 12 10 9 8 12 9 7 7 7 8 4 4 4 3 3 2 3 3 4 4 5 6 6 6 7
16 15 17 15 14 14 12 13 15 16 17 17 16 14 14 14 14 12 12 9 8 15 11 8 7 11 11 11 5 5 5 4 4 3 3 3 3 3 4 5 5 6 6 7
13 13 14 15 15 11 10 12 15 16 18 19 19 18 17 15 14 13 12 10 7 15 12 9 13 17 18 9 6 6 6 5 4 4 3 3 3 3 4 5 5 5 6 6
8 9 9 8 9 11 15 15 14 12 13 14 15 16 15 12 10 10 5 14 20 18 11 13 20 21 18 7 7 6 6 5 5 4 4 3 3 3 3 4 4 5 5 7
6 7 9 12 14 14 13 12 12 11 12 10 11 12 12 10 10 11 9 11 19 19 11 15 21 21 12 7 8 7 6 6 6 5 5 4 4 3 3 4 4 5 5 6
5 7 9 11 9 7 9 11 12 11 12 11 11 11 10 7 7 8 9 10 13 17 12 9 11 14 9 8 8 8 7 6 6 5 5 5 4 4 4 4 5 5 5 6
4 4 5 6 6 7 9 11 12 13 14 13 12 12 12 11 10 10 11 11 11 11 10 9 9 8 8 9 8 8 7 6 6 5 5 5 4 4 4 4 4 4 5 6
Wind_Direction
259 263 243 244 231 198 199 207 217 246 252 271 248 217 197 174 164 168 183 189 192 206 246 275 291 301 306 312 320 327 328 325 321 321 322 324 328 329 330 334 337 334 334 336
295 222 267 266 245 218 222 224 239 266 275 271 296 143 155 168 175 185 194 196 195 207 231 259 278 295 310 314 319 324 322 319 321 327 328 328 330 332 334 335 334 335 337 338
289 306 321 283 241 188 209 213 202 228 249 180 202 195 188 185 186 191 192 190 194 205 223 244 262 284 300 305 312 320 319 319 324 325 327 328 331 335 334 331 331 334 334 338
313 354 294 252 142 178 216 244 216 240 254 205 214 190 188 180 182 186 183 182 188 195 212 230 249 281 295 305 315 319 317 318 320 323 322 323 326 330 327 322 327 327 328 335
64 315 284 295 229 181 209 278 221 226 246 147 109 75 267 203 184 181 177 174 181 187 195 210 247 282 305 314 318 319 317 317 315 315 318 320 324 323 317 318 320 323 329 332
132 234 258 258 160 162 96 284 241 199 190 155 143 183 247 182 166 159 157 157 167 173 181 209 240 280 300 308 313 313 310 309 308 309 314 313 313 312 310 315 321 328 328 328
179 233 264 253 150 142 195 256 212 182 176 169 188 202 183 148 148 150 154 160 163 170 190 213 232 259 285 295 296 297 303 306 308 310 308 304 311 308 313 320 323 320 317 317
165 210 258 193 147 190 219 210 182 188 180 183 185 136 141 150 153 155 158 164 168 178 202 218 223 231 271 281 285 298 305 307 308 308 309 321 315 310 312 314 316 312 311 316
193 220 239 179 204 219 190 199 203 193 185 166 159 167 162 163 163 166 169 172 173 182 201 227 227 224 258 273 295 307 310 309 307 309 307 308 307 307 312 312 312 314 315 320
248 262 249 227 236 237 207 211 205 184 169 167 170 170 168 168 172 174 176 177 173 179 201 225 231 236 245 273 293 303 307 307 308 309 310 311 311 310 312 311 310 311 322 323
255 270 290 262 230 228 212 202 179 171 174 177 166 168 173 175 179 181 182 177 176 187 204 220 228 244 256 270 289 300 304 305 311 314 310 311 316 311 315 306 317 332 327 317
234 228 212 247 232 194 190 198 186 171 171 176 175 175 173 178 178 176 177 173 180 193 208 217 221 241 255 263 274 290 305 312 312 313 317 320 319 321 327 334 337 342 341 340
230 231 214 246 224 187 197 196 182 181 176 176 177 173 171 169 172 172 175 181 191 197 203 207 216 237 248 253 267 275 288 302 305 315 319 322 326 328 327 332 339 345 347 345
234 214 255 233 221 204 194 178 170 175 176 170 164 165 165 158 162 179 188 191 189 189 196 202 215 234 238 241 259 273 283 299 309 300 307 314 317 321 324 328 331 333 339 343
228 215 228 224 187 171 160 149 161 176 171 164 162 165 169 172 180 189 185 175 175 188 201 204 217 232 225 229 252 271 288 287 289 296 308 312 315 319 324 328 328 329 331 338
221 216 222 216 207 185 174 181 187 190 183 177 176 180 182 180 176 172 171 172 178 198 204 204 217 221 210 219 246 266 280 307 321 323 321 320 319 324 330 330 331 331 334 332
200 224 210 218 213 202 200 198 198 191 184 184 186 176 165 161 165 177 184 188 193 198 196 201 210 205 203 210 224 244 263 295 321 327 312 307 308 318 322 325 327 329 330 331
220 230 209 201 202 203 206 203 199 189 187 186 169 162 170 179 187 189 184 177 184 207 216 208 202 200 206 211 214 220 237 262 284 295 300 305 315 318 317 318 321 326 329 333
229 232 224 211 199 193 197 197 197 190 178 168 169 178 184 189 186 175 166 172 189 211 220 205 208 202 204 214 208 197 214 245 272 287 293 317 334 320 319 320 322 324 328 336
230 227 221 211 196 191 194 189 182 179 176 173 174 177 182 185 174 168 173 191 203 202 182 182 193 191 193 210 205 186 203 224 247 274 288 300 311 315 319 323 325 325 330 334
227 220 211 207 202 195 188 180 178 180 177 176 180 184 186 181 174 171 179 204 209 188 183 190 184 187 190 200 202 184 197 212 228 245 269 290 302 310 315 321 324 327 330 332
220 213 210 202 195 194 185 179 178 175 174 181 185 180 174 173 177 184 199 204 181 185 186 190 184 193 196 198 181 182 196 208 218 227 242 262 280 297 307 314 317 321 326 324
220 211 204 197 193 183 169 177 179 177 180 183 184 182 182 181 179 184 201 201 178 188 183 189 196 199 201 192 179 189 197 205 213 219 228 241 256 271 287 299 304 311 312 314
214 201 194 175 156 164 183 188 182 181 183 185 187 184 178 174 187 200 184 175 183 190 188 194 198 200 199 178 179 189 197 205 210 215 222 232 243 256 268 282 292 298 303 310
200 182 171 172 184 196 192 171 168 171 174 183 186 186 186 182 179 184 177 175 183 187 186 196 198 201 193 174 185 192 197 204 205 206 214 223 234 247 259 271 283 295 301 305
197 196 198 203 203 186 169 170 178 179 180 183 186 185 185 178 161 158 170 178 183 187 183 186 192 198 184 181 189 194 198 210 224 217 208 215 228 238 251 264 279 286 293 297
201 199 196 202 202 185 177 181 184 184 185 184 181 179 178 176 172 169 171 177 183 186 182 184 187 187 183 185 189 193 195 198 203 207 209 213 220 229 240 254 266 278 287 292